GFSNW_250_spd_000.txt.gz
Wind_Speed
27 27 27 25 22 19 19 21 20 19 20 22 23 21 20 16 15 19 23 23 21 22 20 19 18 20 21 25 27 30 33 26 25 29 29 33 36 36 41 41 39 42 43 40
32 31 30 29 26 23 21 23 23 22 20 22 22 21 21 20 18 21 23 25 23 25 26 23 22 23 26 27 27 27 28 28 30 34 34 38 41 45 47 50 50 48 52 51
34 33 34 33 31 27 20 20 25 25 23 21 23 21 23 22 21 19 29 29 30 30 28 28 29 26 25 26 25 24 21 28 31 34 39 40 43 51 56 55 55 52 60 60
37 38 37 36 33 31 25 22 23 26 24 26 25 25 22 23 23 23 25 31 34 33 29 27 23 25 30 31 31 27 24 30 29 39 42 39 43 52 60 62 66 66 59 70
39 38 39 38 37 35 36 32 28 29 28 27 27 26 21 22 21 23 28 31 35 37 36 37 36 34 36 42 41 33 32 29 29 31 38 41 44 58 60 65 68 71 74 69
39 39 39 36 35 36 36 37 34 33 33 32 30 26 25 24 22 21 21 32 38 38 39 43 46 48 47 46 46 43 44 41 38 38 44 45 48 60 60 62 69 74 76 79
47 45 41 38 38 39 37 38 36 37 35 38 37 32 29 28 28 28 26 27 29 31 33 35 40 41 44 47 46 45 49 49 49 46 50 48 56 67 66 68 74 82 78 79
52 50 50 47 46 43 40 39 39 41 42 41 42 40 38 36 36 35 34 32 32 32 34 33 36 41 39 41 46 52 54 55 56 55 53 52 62 71 71 72 72 76 77 78
54 51 53 53 55 53 52 52 50 51 46 43 41 46 47 47 44 43 44 43 41 40 40 39 38 40 45 42 46 57 59 61 59 63 59 55 65 69 70 70 71 74 78 80
61 57 57 55 57 57 56 57 57 53 51 53 50 51 51 51 49 49 49 49 53 54 53 50 48 47 50 50 52 56 60 58 60 63 64 63 70 72 75 78 78 80 85 88
67 67 64 62 58 56 54 57 57 54 52 54 53 54 56 56 58 54 54 53 56 59 59 54 53 49 53 52 58 63 60 64 67 68 72 71 75 77 80 82 82 86 84 90
70 70 69 69 68 64 59 60 60 59 58 55 59 57 64 62 61 63 61 62 64 61 61 58 55 56 56 59 56 62 64 69 69 76 72 77 79 81 83 87 88 87 92 94
78 77 75 73 72 73 71 69 68 70 66 60 59 64 68 65 67 67 67 67 71 69 67 63 65 66 67 65 63 68 71 78 80 79 76 80 82 87 90 89 91 94 97 100
81 82 83 80 78 78 80 82 80 78 73 71 65 69 73 76 75 75 75 76 76 74 78 79 76 76 72 68 71 73 80 86 88 80 83 82 91 95 95 93 97 104 107 110
87 88 86 86 85 84 83 85 87 85 85 80 79 78 79 83 84 82 82 83 85 85 81 81 82 83 86 79 77 81 90 94 95 89 91 95 88 95 100 100 104 109 112 112
90 89 90 91 93 93 90 90 87 92 93 94 84 79 79 83 87 89 93 93 94 94 88 87 88 90 95 91 84 85 99 98 100 97 96 97 97 93 97 104 110 113 115 118
94 95 96 95 97 97 98 95 93 96 101 104 96 86 81 86 90 91 94 100 98 98 96 94 95 98 105 100 92 96 106 106 105 106 107 104 106 110 115 118 120 122 125 127
106 101 97 100 102 101 101 101 98 100 104 104 105 96 90 93 96 97 101 103 104 100 101 100 104 103 106 103 107 108 110 112 109 112 115 118 118 120 123 127 128 129 134 137
105 108 110 107 108 111 112 110 110 109 109 109 105 102 106 105 108 110 111 112 110 108 105 109 115 111 114 115 117 120 120 121 118 118 120 124 127 130 132 133 137 139 144 142
109 112 113 115 112 113 114 115 114 115 115 115 112 110 111 115 119 120 118 116 116 118 112 117 117 117 123 127 127 127 125 123 126 128 129 131 133 137 137 139 144 148 145 152
117 113 117 118 118 116 117 121 120 121 120 120 120 118 121 123 122 120 124 127 130 129 125 129 129 125 127 128 132 131 132 132 132 135 136 138 142 144 148 147 147 142 136 126
127 128 128 126 126 125 120 122 124 125 125 128 130 130 128 126 130 133 131 126 128 130 126 126 128 132 131 131 134 135 138 139 140 142 144 145 143 134 121 120 119 117 118 117
128 128 133 132 135 133 127 126 131 137 139 138 137 137 139 140 137 132 133 132 133 130 126 125 127 124 125 127 127 130 136 136 137 138 134 121 117 113 110 112 112 111 108 104
127 127 123 122 124 129 130 132 134 137 139 136 131 130 131 129 130 132 131 128 126 126 125 125 124 122 112 112 118 121 116 109 106 105 104 104 104 103 102 102 97 93 92 90
113 114 114 118 119 123 127 127 126 122 124 126 125 124 123 122 123 120 118 120 119 119 122 120 107 104 102 103 103 99 98 98 98 96 94 92 88 87 86 87 85 83 82 81
102 101 103 105 109 112 113 114 114 115 113 111 111 112 112 112 110 108 109 108 105 107 103 100 97 95 95 92 88 88 88 87 86 85 84 83 85 84 84 81 80 80 82 81
93 93 96 97 99 100 101 102 102 101 101 102 103 102 102 98 95 94 98 100 94 92 91 91 91 90 88 86 82 82 83 83 84 83 81 81 82 82 81 81 79 79 78 77

GFSNW_250_spd_003.txt.gz
Wind_Speed
27 27 28 26 24 23 22 19 18 20 18 19 20 22 20 18 16 13 14 17 27 34 33 33 29 22 21 18 22 22 23 26 27 25 27 30 37 41 40 39 33 41 32 40
32 31 29 28 28 28 25 22 21 22 20 21 21 21 20 20 18 15 15 17 24 31 32 33 34 30 25 22 21 22 25 26 32 36 34 39 48 50 50 41 39 48 45 48
35 33 33 32 32 32 30 28 24 22 21 23 23 22 20 22 24 20 16 17 25 29 32 33 34 34 31 22 22 26 27 31 35 42 40 38 41 54 58 48 45 41 54 49
38 37 35 33 35 37 35 32 29 24 22 21 22 22 24 23 22 23 23 22 22 29 36 38 39 38 34 33 31 35 37 42 40 45 45 42 42 54 59 59 58 57 50 64
42 41 40 38 38 37 36 36 31 30 29 26 27 25 24 24 23 24 23 23 24 25 30 35 39 39 41 45 47 48 45 47 37 43 45 43 44 56 64 64 65 66 67 64
45 45 43 40 39 40 41 39 37 35 35 35 33 31 29 29 27 27 25 24 25 25 26 31 34 34 36 40 39 36 38 38 39 39 48 47 52 58 63 63 66 68 67 68
45 49 46 45 42 41 38 38 36 34 35 35 34 34 33 36 37 33 31 29 28 29 30 33 34 36 36 38 41 42 44 45 45 44 49 50 55 60 63 63 69 74 76 78
47 48 48 48 47 44 41 40 40 37 36 37 37 37 39 41 38 40 40 39 37 36 36 37 37 40 41 44 46 50 52 52 54 56 54 53 58 68 66 69 70 76 81 82
50 53 50 48 49 51 50 47 46 43 42 45 45 46 47 47 45 43 45 48 49 48 44 44 43 45 49 48 52 56 63 66 66 66 63 60 68 75 72 74 75 76 82 86
55 51 52 53 50 50 51 51 51 51 50 53 54 55 55 55 54 52 50 47 51 56 55 53 52 50 53 55 58 62 65 66 67 70 69 64 72 74 75 77 79 84 91 93
57 56 54 52 54 53 54 56 56 53 49 52 54 57 59 58 57 54 52 52 54 57 56 56 59 56 60 62 67 69 69 69 70 73 77 75 79 80 84 83 87 93 90 95
59 57 60 60 57 56 57 62 61 61 57 56 56 56 62 60 61 62 62 61 62 60 62 64 63 64 67 68 67 75 74 80 79 85 83 85 86 88 90 97 99 99 102 102
66 63 62 63 62 61 61 62 64 67 64 61 62 64 70 69 65 64 68 69 74 70 71 72 73 75 77 79 77 77 77 85 87 90 88 90 91 95 100 103 105 104 107 111
73 70 69 68 69 70 69 69 71 72 71 70 65 68 71 73 74 73 73 73 77 79 82 82 79 79 80 81 85 87 91 95 100 93 93 97 99 104 106 108 108 110 113 117
80 79 79 77 75 76 78 79 79 80 82 78 76 73 76 81 83 83 82 81 83 86 86 85 85 86 93 86 84 86 96 102 104 102 101 105 100 107 114 114 116 119 124 126
85 84 81 82 82 84 87 86 83 86 88 90 84 83 82 84 87 90 93 92 91 95 95 92 92 95 101 97 88 91 106 108 110 110 111 112 113 115 118 123 126 128 130 135
85 85 86 86 86 89 90 89 85 89 93 96 94 89 86 87 93 97 101 104 104 105 104 101 104 105 110 106 99 110 117 117 117 120 122 122 123 126 128 131 132 134 139 142
92 90 90 92 92 93 93 92 91 93 97 99 101 92 89 92 97 101 104 107 109 110 109 105 107 106 112 108 112 114 116 121 121 123 126 131 133 134 138 138 138 137 136 134
100 99 97 97 96 97 97 100 101 103 104 106 105 103 104 105 105 107 109 107 107 112 110 108 116 108 111 116 117 117 120 122 126 127 130 129 130 129 130 129 126 124 120 121
107 108 108 108 106 105 103 102 106 109 108 111 115 114 116 112 111 109 112 111 112 114 106 111 114 113 121 124 127 129 126 127 128 127 124 126 127 123 116 114 116 111 112 108
112 112 113 115 113 113 114 115 113 114 115 113 113 115 118 117 114 117 119 120 125 126 120 127 126 124 130 132 131 130 125 120 120 122 123 117 110 104 103 99 97 97 99 97
119 118 117 117 119 120 122 122 121 118 117 116 118 117 118 120 123 125 126 128 133 135 133 131 133 136 135 131 128 122 121 121 119 115 109 105 102 98 94 90 88 87 88 87
127 128 128 128 128 126 120 120 122 126 128 127 126 126 124 125 128 134 136 135 131 128 126 128 128 133 127 120 118 118 113 107 101 97 98 97 92 89 89 87 86 85 85 83
126 125 126 127 126 125 127 130 132 134 131 132 132 132 133 137 137 132 130 130 131 132 131 128 133 127 115 114 111 108 102 97 95 93 90 87 84 85 84 84 85 85 84 83
134 135 131 126 128 133 136 140 140 135 134 134 133 130 125 126 126 126 125 123 120 120 121 122 121 115 111 109 104 99 93 93 90 90 88 85 84 84 84 84 83 81 81 79
132 131 130 134 137 139 138 128 126 129 127 123 122 120 117 117 117 115 114 115 111 115 112 107 106 103 102 103 103 99 94 92 90 88 87 87 85 83 82 80 79 78 76 75
103 106 111 113 115 117 117 114 113 114 116 116 114 111 112 108 103 106 107 109 106 104 103 101 100 99 97 100 100 95 91 89 89 88 86 85 84 81 79 77 75 74 72 71

GFSNW_250_spd_006.txt.gz
Wind_Speed
36 33 29 27 26 24 23 21 20 20 18 18 18 17 18 18 18 20 20 18 19 17 20 25 30 31 29 27 29 27 27 22 27 27 30 31 32 37 39 37 34 39 39 42
39 33 30 27 27 27 25 25 23 22 21 21 20 20 19 20 20 19 18 18 19 20 22 29 32 36 38 40 36 34 33 33 28 34 34 36 45 55 53 46 42 44 41 46
41 36 33 30 29 29 29 28 28 27 26 23 20 22 23 23 23 22 21 17 17 17 22 26 34 38 40 38 39 40 38 39 36 38 46 48 45 52 59 57 51 48 55 48
44 41 39 36 35 34 32 32 32 32 30 28 24 22 21 22 24 23 21 20 19 19 18 22 30 36 39 42 41 41 39 45 47 48 45 41 42 47 54 58 61 60 56 63
43 42 40 39 39 37 36 34 33 34 35 32 31 28 27 25 25 24 24 21 23 21 21 22 22 23 25 30 32 34 33 36 37 38 45 43 44 52 56 60 62 65 66 68
48 45 44 43 42 41 38 36 35 35 35 32 31 35 34 33 31 30 28 28 27 28 27 26 29 30 33 33 33 36 37 37 37 39 47 50 54 60 64 64 67 70 71 73
49 45 46 44 41 39 38 39 37 39 38 36 35 34 34 34 35 31 33 36 33 34 34 34 35 38 39 41 44 45 44 48 49 49 52 51 58 70 73 69 72 74 74 77
42 42 44 43 44 47 42 40 39 41 44 42 37 36 34 34 34 34 36 37 38 38 39 42 43 47 47 51 51 55 56 56 58 57 59 61 66 76 76 75 74 80 81 85
48 47 42 45 46 44 44 43 42 43 46 46 45 43 41 39 41 44 44 46 46 47 47 50 48 44 47 50 54 58 61 64 64 65 63 63 72 76 80 83 82 86 90 94
50 49 49 47 47 46 47 45 45 43 46 50 50 47 48 52 51 50 51 52 53 53 50 48 46 45 50 50 55 58 62 63 67 70 75 72 81 82 83 86 84 89 94 98
56 54 53 54 51 53 51 47 47 46 45 47 47 49 50 51 51 52 51 51 53 54 56 55 55 53 56 59 63 66 68 72 75 78 81 78 84 87 90 93 92 98 97 101
57 61 59 57 55 54 53 56 53 49 48 45 48 49 54 55 55 56 57 58 61 60 63 62 60 60 62 65 66 74 76 82 82 86 89 89 89 93 94 100 103 103 107 110
64 64 64 62 60 58 56 56 57 57 55 53 52 54 58 58 62 64 66 68 70 70 73 72 69 71 75 76 76 79 81 88 88 87 90 95 94 98 105 107 109 112 116 117
70 69 69 68 66 65 65 62 62 61 60 60 59 64 64 68 69 69 72 74 76 79 82 80 79 81 81 78 81 84 92 97 103 95 97 100 101 110 113 116 116 116 117 121
80 77 76 73 72 73 71 70 69 68 71 70 68 67 70 74 76 77 80 82 84 86 86 86 85 88 94 86 83 87 99 105 108 103 104 110 108 109 110 114 116 118 122 125
84 84 83 82 79 79 81 77 74 78 80 82 76 75 75 78 81 82 85 88 89 89 89 89 91 92 97 91 84 95 109 108 109 112 107 106 112 116 119 127 132 130 129 124
88 89 86 87 86 86 86 81 80 85 85 87 87 81 78 80 84 90 92 93 92 93 94 92 96 97 103 102 99 105 109 109 109 111 113 117 122 127 130 130 131 127 124 124
92 92 93 91 91 91 91 89 87 89 95 96 96 90 86 86 87 92 94 95 100 101 99 98 103 105 108 111 113 112 112 115 118 120 121 128 133 136 130 128 122 120 121 110
100 96 95 97 97 97 94 94 95 95 97 97 94 92 91 93 96 96 98 100 104 106 100 101 108 105 111 118 115 115 117 120 122 124 127 137 131 133 127 123 120 114 106 98
102 104 105 101 97 98 101 103 105 104 101 99 99 99 104 104 105 105 107 111 112 115 112 116 116 116 117 118 118 124 125 125 126 132 136 131 129 121 119 113 106 98 94 94
104 105 107 106 105 107 107 108 107 107 109 108 108 111 113 113 114 115 116 118 120 121 117 123 123 118 122 123 124 126 130 129 136 130 129 127 124 118 110 102 97 94 94 90
117 113 111 113 112 112 113 112 115 118 118 115 116 118 119 118 119 122 123 123 124 123 125 130 125 130 130 128 129 132 131 132 133 129 123 116 112 109 100 95 94 93 94 92
125 123 122 117 119 120 118 118 119 122 125 126 126 124 126 125 125 126 129 133 136 136 131 129 129 139 133 130 124 122 123 122 124 117 109 107 104 102 99 96 96 97 97 95
130 132 131 126 126 128 126 129 128 125 124 125 126 128 128 129 132 136 134 129 129 129 128 132 139 135 126 123 119 116 115 115 110 106 103 102 99 96 95 96 94 93 93 92
131 133 132 131 130 133 136 136 133 129 128 125 125 126 124 124 128 129 128 130 131 135 141 137 131 124 119 118 114 111 108 109 106 105 101 99 96 94 92 92 92 91 87 81
123 124 124 127 127 130 132 129 128 125 121 121 123 125 124 124 126 125 128 132 131 130 125 118 116 117 113 108 109 107 107 105 105 102 96 95 93 91 90 88 86 81 77 74
107 112 110 111 115 119 121 120 117 116 117 121 123 121 121 119 117 122 118 115 111 112 109 109 108 108 107 106 105 105 103 99 96 92 90 89 88 87 84 80 76 73 71 70

GFSNW_250_spd_009.txt.gz
Wind_Speed
34 33 32 28 25 24 23 22 20 18 16 15 15 15 17 16 16 17 17 18 18 19 20 18 17 17 23 27 28 32 29 31 39 36 34 33 35 42 46 40 37 44 38 44
36 35 34 31 30 28 26 23 23 23 21 18 19 18 18 19 20 19 18 18 19 16 17 16 16 20 25 30 33 35 39 40 43 46 41 41 44 53 56 48 45 45 44 47
39 39 38 35 34 31 28 27 27 26 25 23 24 23 21 20 19 18 17 18 17 16 17 16 16 21 25 30 36 40 41 44 40 44 44 40 39 42 47 49 48 47 59 55
43 43 41 39 37 33 31 30 31 30 28 28 28 27 25 23 21 17 18 19 19 19 18 18 17 17 17 20 26 25 26 32 30 36 34 35 38 44 49 53 58 59 59 68
47 45 45 44 39 36 34 35 34 34 32 30 31 29 30 30 30 25 25 22 24 25 22 23 23 23 24 26 27 27 30 31 32 39 44 45 48 55 56 59 62 64 64 65
50 49 48 48 45 42 41 38 38 37 36 33 32 31 30 30 31 34 32 30 27 27 30 29 30 31 33 34 34 39 41 39 37 40 46 49 52 58 58 59 62 65 70 72
50 49 48 48 47 45 45 42 42 40 39 36 36 35 33 33 35 34 35 31 28 29 32 32 34 35 36 36 41 43 45 47 48 47 51 51 62 64 64 64 69 73 78 78
51 50 50 49 48 48 48 46 46 42 42 41 36 37 37 37 38 36 34 31 33 32 34 36 41 43 44 47 47 49 48 50 50 51 49 51 64 66 68 69 75 82 84 87
46 48 49 49 49 49 47 49 48 46 45 43 37 38 37 42 43 41 41 39 39 40 44 43 44 45 44 45 48 50 54 56 60 61 59 61 71 71 76 80 78 84 88 93
47 48 47 49 48 47 46 46 45 44 44 46 39 39 39 39 41 44 46 45 48 49 47 47 47 47 49 51 54 57 61 63 65 68 69 71 78 80 84 87 87 88 96 99
58 55 54 51 48 45 47 48 46 44 44 45 43 45 45 46 44 44 44 45 49 49 50 50 49 51 55 58 60 65 66 71 72 73 76 81 87 87 93 93 90 103 103 105
59 56 55 57 52 49 50 49 52 50 49 48 50 51 52 53 50 48 51 51 50 52 56 59 59 61 63 67 67 71 74 79 79 84 80 86 89 92 94 101 106 109 110 109
67 65 64 60 59 56 54 54 57 57 54 51 50 55 58 58 59 59 60 63 65 66 68 68 68 69 71 71 72 77 80 83 85 87 86 85 89 95 102 108 111 110 112 115
70 70 68 69 67 65 61 60 61 61 62 55 53 58 60 63 64 65 67 69 71 73 76 74 73 74 74 75 77 79 82 86 88 84 91 92 94 100 104 109 114 112 115 118
72 72 73 73 69 70 68 67 70 69 71 67 64 65 69 69 71 72 74 75 77 78 79 79 78 81 85 81 80 80 89 94 96 90 96 103 102 108 114 121 123 121 119 120
79 78 79 79 77 76 78 72 73 77 79 77 72 70 73 77 79 81 81 81 81 84 83 82 84 87 92 87 83 89 99 101 105 108 110 113 114 117 123 124 129 128 125 128
82 82 82 85 86 83 81 76 79 83 84 85 83 78 74 79 84 84 84 87 88 88 90 89 90 92 97 94 92 100 103 106 110 114 119 119 120 126 129 134 136 132 130 132
88 88 86 89 87 87 85 83 85 89 91 90 85 81 83 83 85 89 92 93 95 96 97 95 98 97 100 102 109 109 109 113 116 119 122 125 127 130 137 138 131 133 134 129
96 95 93 95 92 91 90 93 91 91 94 94 89 88 90 91 93 95 97 101 101 101 100 105 107 104 107 115 117 117 116 119 121 126 128 128 132 140 137 131 131 132 125 122
104 104 101 96 94 95 96 97 97 98 97 96 92 93 98 99 98 101 102 103 103 104 102 110 111 110 114 120 123 128 126 128 131 132 135 138 139 135 130 125 126 120 119 114
111 106 107 107 106 105 104 103 100 99 101 102 102 102 105 108 111 111 111 109 110 110 112 114 112 112 119 125 126 127 130 130 132 130 129 130 130 126 121 113 113 109 107 109
112 113 112 113 112 113 114 111 108 107 107 108 112 114 113 112 110 111 115 118 119 118 119 122 123 127 132 128 126 127 126 124 124 124 124 126 127 118 113 111 110 109 109 107
116 117 118 118 119 118 117 113 115 119 120 118 115 115 115 116 116 116 117 119 119 121 124 130 135 135 127 125 123 123 122 122 120 119 118 117 114 113 111 109 110 106 101 98
126 125 123 124 126 125 122 122 122 121 126 125 124 122 125 127 128 128 124 127 132 136 135 136 133 130 127 123 120 119 117 114 112 110 109 107 106 106 104 104 101 96 91 89
138 134 134 130 128 125 127 130 127 128 129 127 124 124 125 128 132 133 136 138 135 140 140 132 128 125 120 117 114 109 104 104 104 104 103 102 102 101 96 96 92 88 84 80
137 135 131 131 128 132 130 131 133 130 130 127 124 126 127 129 131 131 132 131 128 128 123 121 119 116 113 109 105 103 102 103 103 100 99 97 95 90 85 85 82 80 77 75
119 124 131 131 129 131 127 125 122 122 122 121 122 120 120 116 119 129 130 126 121 118 115 111 108 105 103 104 105 104 103 102 100 96 94 89 88 84 81 78 77 74 71 69

GFSNW_250_spd_012.txt.gz
Wind_Speed
35 36 37 37 33 29 23 21 20 19 17 17 14 13 14 14 14 15 15 15 15 15 16 17 15 13 13 15 23 28 29 33 34 33 32 39 48 49 44 40 38 38 35 39
38 37 37 36 34 31 28 23 23 22 22 21 20 17 17 16 15 17 18 15 13 14 14 15 15 14 13 16 19 25 32 36 39 38 43 45 51 53 40 34 37 39 44 45
41 39 38 38 37 35 33 28 27 26 27 26 25 22 21 20 19 18 16 16 17 15 15 15 14 14 13 13 14 18 25 31 36 39 37 31 37 42 42 44 47 48 54 51
42 41 39 38 38 38 35 32 31 30 30 30 28 25 24 25 23 23 22 21 19 19 19 19 20 18 18 18 18 21 23 24 27 31 33 37 44 46 50 54 56 55 57 60
45 44 41 38 37 38 36 36 34 31 33 33 30 28 27 28 24 26 27 28 28 27 24 25 27 26 25 26 27 29 31 33 35 41 43 44 48 48 48 51 54 58 61 65
45 46 45 42 42 42 41 41 38 34 36 36 34 34 33 32 29 29 28 28 30 32 32 32 29 29 29 29 31 33 34 36 40 44 47 47 51 52 56 59 65 66 68 71
49 47 46 45 46 46 45 44 43 40 40 40 38 36 37 35 33 32 31 30 30 31 31 29 31 33 34 33 40 42 42 42 42 42 44 46 62 56 60 63 70 73 74 76
55 52 50 48 48 49 49 48 48 47 47 45 43 41 41 40 38 35 32 35 33 33 35 34 36 37 38 41 45 47 46 48 48 51 51 53 66 63 66 68 72 77 79 82
57 57 56 53 53 53 53 52 52 51 50 49 44 43 43 41 38 36 35 36 37 39 39 39 41 46 48 45 47 51 53 55 57 59 62 62 70 71 74 75 76 81 84 85
52 53 55 53 55 56 54 54 53 52 50 49 49 45 47 44 42 43 41 40 41 42 41 41 41 44 47 50 54 55 59 61 66 68 68 70 78 80 82 81 80 83 87 87
52 51 50 49 49 50 49 48 46 47 52 51 47 47 47 45 44 45 47 47 52 52 51 51 52 51 55 58 60 64 67 69 72 72 75 80 81 83 87 87 86 89 92 99
56 59 62 59 60 64 60 59 53 50 51 47 45 48 50 48 49 49 49 52 55 56 57 58 58 57 59 63 65 71 72 74 74 78 76 84 86 90 91 94 95 98 105 109
68 65 62 60 59 56 55 51 48 46 48 50 48 52 54 57 55 54 54 56 59 59 61 63 64 64 67 69 68 70 72 78 80 83 85 88 91 94 97 100 103 109 113 114
68 66 65 61 58 59 59 59 58 57 57 57 55 57 61 62 62 62 62 63 64 65 65 66 68 72 72 71 76 76 81 85 87 89 93 91 98 99 102 107 113 116 117 122
73 72 72 71 69 67 64 65 62 63 62 58 59 63 67 70 68 67 67 69 72 75 75 77 79 81 86 81 80 82 89 90 95 96 99 101 100 104 108 112 114 117 124 132
75 74 77 74 70 71 70 68 69 70 73 70 66 61 67 72 72 73 72 75 77 78 80 79 79 84 90 87 84 86 96 99 102 103 104 108 110 114 118 118 124 129 132 140
82 79 79 79 78 75 74 70 69 75 75 72 69 66 67 76 78 78 78 81 83 83 83 81 83 87 94 94 92 99 101 103 104 107 110 114 117 124 125 128 133 137 140 139
89 87 87 86 82 79 77 78 79 80 82 80 74 70 73 75 80 84 86 87 89 87 90 90 92 93 97 98 104 106 110 112 115 119 118 119 123 126 129 132 138 142 141 142
95 96 92 92 90 89 86 88 88 88 88 83 76 75 79 80 82 85 88 93 95 95 96 99 100 101 104 109 112 114 115 117 118 120 122 125 128 132 136 140 147 140 136 132
102 97 96 95 95 97 97 97 97 96 94 91 85 86 90 90 94 97 101 102 100 100 98 103 103 103 110 116 118 117 117 121 124 127 128 132 137 136 143 143 139 134 126 123
107 106 103 99 100 102 102 103 102 101 99 99 100 103 103 105 106 107 107 105 106 104 106 109 111 114 120 123 119 124 125 127 128 132 133 137 141 139 133 131 128 123 117 112
113 110 105 108 108 109 109 106 106 107 109 107 109 110 112 111 110 111 112 113 113 114 116 118 122 126 126 123 126 128 128 127 127 129 132 131 127 124 122 120 113 108 106 107
118 115 114 114 116 118 117 114 112 110 114 115 114 114 116 115 116 117 119 118 119 121 125 127 131 133 130 129 130 128 128 129 127 122 119 121 118 114 111 107 106 103 101 102
128 125 124 123 119 116 116 118 119 116 116 121 122 122 120 117 122 121 121 124 127 129 131 136 135 132 131 132 131 127 127 123 119 120 119 113 106 104 103 104 102 96 93 90
124 126 132 128 125 128 126 124 124 125 125 126 127 128 124 123 126 127 130 133 137 143 147 143 139 135 131 130 128 123 117 113 111 109 104 102 103 101 97 94 90 85 81 79
109 109 112 119 126 132 136 136 138 134 129 130 132 133 134 135 137 139 143 144 143 141 134 128 128 128 125 122 116 113 109 105 101 98 96 96 95 90 84 82 80 77 75 75
107 115 117 118 119 122 131 136 137 139 141 138 137 139 143 141 144 142 138 136 132 128 127 125 124 119 114 110 108 105 102 99 95 96 95 91 87 82 77 74 73 72 71 70

GFSNW_250_spd_015.txt.gz
Wind_Speed
46 42 33 35 36 35 31 28 26 25 23 20 19 16 15 15 14 13 14 15 17 16 16 16 17 15 11 10 13 16 21 28 28 30 35 39 39 41 42 40 37 36 36 42
50 42 37 37 39 38 33 32 29 26 26 25 23 20 18 17 17 16 14 16 17 16 15 15 15 16 14 13 13 12 15 19 23 29 34 40 39 35 33 34 38 41 45 49
46 41 40 41 40 40 37 34 31 28 27 26 25 24 23 23 20 19 18 17 18 18 18 18 19 18 19 17 16 18 20 20 21 21 24 30 35 38 41 43 45 45 49 47
47 43 42 43 42 41 40 39 35 32 30 30 28 28 28 27 25 24 22 23 24 25 24 24 23 23 24 25 24 25 27 28 29 30 32 35 42 45 48 46 47 46 51 57
50 46 45 43 43 44 45 43 39 38 35 33 32 32 31 30 29 29 26 24 26 27 29 31 31 31 30 32 32 29 29 29 31 38 38 41 46 47 47 49 53 54 58 63
53 49 47 46 45 45 45 45 44 42 39 36 35 34 34 34 32 32 32 31 30 31 32 32 33 33 32 34 35 33 34 33 36 43 46 48 51 51 53 55 61 62 63 69
55 51 50 47 46 45 45 45 45 43 41 38 37 36 36 36 36 36 36 35 35 34 35 34 34 34 34 36 37 39 42 42 46 47 48 50 63 56 58 62 67 70 72 76
58 55 51 49 49 48 48 47 46 44 43 42 42 42 41 40 40 41 41 41 40 39 37 37 38 40 39 39 43 45 46 49 51 54 52 53 67 64 66 68 68 75 76 80
61 58 55 52 50 50 50 50 49 48 47 46 46 45 46 47 46 45 44 44 42 40 42 42 41 40 43 44 47 51 53 54 56 59 57 59 70 67 69 71 73 79 82 86
62 59 57 55 53 51 51 52 52 51 50 49 48 49 50 49 49 47 46 45 46 47 46 45 45 45 48 48 53 56 58 59 63 64 66 66 73 74 79 80 81 82 88 91
62 62 59 58 57 55 55 55 54 53 52 53 53 52 53 52 50 48 48 47 50 49 47 48 48 50 51 53 55 60 62 63 64 68 73 76 80 80 81 84 86 91 95 97
65 64 64 63 63 60 62 59 57 55 53 53 54 56 55 50 49 50 50 48 51 49 51 53 51 52 54 55 56 64 64 71 71 77 75 82 84 83 86 88 92 96 102 105
60 58 61 59 60 56 56 56 54 54 56 57 55 55 54 51 51 52 51 53 55 55 57 57 57 60 60 59 59 65 70 77 75 80 80 85 88 92 94 95 100 103 108 112
62 63 64 63 60 58 59 63 63 62 61 56 56 55 52 53 54 56 58 60 61 62 62 62 62 62 63 63 67 69 75 79 83 82 85 89 93 98 100 102 107 110 112 115
65 64 65 66 67 67 68 64 59 59 59 55 52 53 60 60 59 61 61 62 64 66 65 65 65 69 74 70 70 76 85 88 88 88 93 96 98 103 104 109 114 118 119 124
69 68 68 70 69 67 64 61 61 65 66 60 56 57 64 66 68 69 69 70 68 68 67 69 74 80 82 76 77 84 92 94 97 97 96 101 104 107 113 117 122 127 127 130
76 76 71 72 72 72 69 68 67 72 70 69 68 65 62 69 74 76 76 74 73 74 75 76 78 82 86 86 84 92 96 101 105 107 105 107 111 115 122 126 128 132 136 138
82 78 81 79 79 76 73 71 73 78 78 77 74 69 68 70 77 83 85 85 86 84 83 82 83 85 90 92 97 97 103 108 111 109 112 115 118 123 128 130 134 139 144 151
90 87 84 84 86 83 81 82 82 82 83 84 76 75 74 76 80 85 89 91 92 93 91 93 94 94 101 106 107 110 113 114 114 115 118 122 124 128 132 137 146 149 154 145
96 97 95 92 88 88 87 89 90 92 90 88 86 84 87 89 90 91 94 96 98 98 98 103 103 104 108 113 115 119 120 121 124 125 127 127 130 134 137 148 149 144 136 133
102 101 99 99 99 99 96 96 95 95 93 95 95 97 100 100 102 103 103 103 105 105 105 108 109 110 116 119 123 122 123 128 130 131 132 135 138 142 148 150 141 135 128 122
108 108 107 106 106 107 106 102 102 102 103 102 103 104 106 106 107 110 112 111 112 112 113 117 119 123 125 124 123 125 127 129 131 134 136 141 143 149 140 135 125 116 111 109
115 113 112 111 112 114 112 109 107 109 111 109 111 112 110 112 114 116 115 117 120 123 123 126 131 130 129 131 131 132 135 137 140 139 142 141 148 135 131 118 112 108 106 104
112 114 116 119 121 116 114 116 116 118 117 115 116 116 117 116 117 119 121 125 127 127 129 135 136 136 135 137 139 143 146 143 144 143 146 144 127 117 111 109 108 105 101 97
119 119 120 116 115 118 119 119 120 121 121 121 122 123 123 125 127 127 133 133 136 140 144 142 142 144 143 145 149 150 147 143 148 145 132 119 110 106 104 104 103 98 92 85
130 128 126 126 123 125 127 126 126 128 129 128 127 129 133 136 134 132 131 135 141 145 143 144 146 148 148 145 143 141 134 128 119 110 106 103 102 101 100 97 93 86 80 76
117 116 114 120 124 129 130 131 124 124 128 127 122 124 124 125 124 126 129 131 130 131 131 129 129 130 126 121 115 112 109 106 104 101 99 99 98 96 90 83 80 76 71 68

GFSNW_250_spd_018.txt.gz
Wind_Speed
40 40 37 36 31 30 33 33 30 25 22 20 19 18 17 16 16 16 14 14 14 15 16 16 16 13 12 12 12 12 12 12 15 23 28 30 31 32 33 34 36 37 37 45
41 44 42 41 34 30 36 34 31 28 25 23 22 21 20 19 19 18 16 15 16 17 17 18 19 18 16 16 17 18 15 12 12 15 19 20 23 25 28 32 37 41 44 45
45 43 45 42 39 34 37 36 33 30 27 26 26 25 24 24 23 22 20 18 20 20 20 21 23 22 21 22 22 24 24 23 24 26 30 31 31 32 33 36 39 40 46 45
55 52 48 47 42 37 40 39 35 33 30 28 28 28 27 28 28 27 25 25 24 24 26 27 28 29 29 29 28 30 33 33 30 32 31 32 36 37 41 41 43 41 47 53
56 55 53 50 45 40 41 42 39 35 34 32 32 32 31 30 30 31 29 29 29 29 29 30 30 31 30 29 30 31 32 31 33 36 34 37 44 46 47 50 51 51 54 57
56 58 58 54 48 45 43 44 43 41 40 40 38 36 34 34 33 34 34 33 33 32 34 35 35 35 34 34 33 34 34 34 35 39 40 46 51 51 47 50 55 57 60 65
58 60 59 55 49 45 46 46 46 46 45 44 43 41 39 38 37 36 36 36 36 36 38 38 38 40 39 37 39 40 39 38 36 39 43 46 59 52 50 53 58 64 67 71
59 63 61 56 51 48 47 47 49 50 49 48 46 44 43 43 40 40 41 41 41 41 42 41 41 42 43 43 43 44 43 45 44 44 47 45 59 58 59 60 63 70 71 74
60 60 59 58 55 52 50 49 49 47 48 47 46 46 46 46 45 45 45 47 48 47 47 45 43 44 45 46 49 51 51 51 50 51 52 51 60 60 61 64 67 72 75 80
63 63 61 62 60 56 53 52 51 50 49 49 47 47 48 48 48 48 48 49 50 51 49 47 46 46 47 48 50 52 53 54 55 58 56 55 62 65 69 72 73 77 82 88
66 65 65 64 62 59 56 54 53 52 52 52 51 51 52 51 51 50 53 53 50 46 46 46 48 48 47 49 52 57 57 58 62 61 63 64 69 73 77 80 81 86 91 92
65 67 68 66 65 63 60 59 57 55 54 53 51 52 51 54 55 57 57 49 47 46 48 47 49 50 48 50 52 60 62 67 64 66 67 74 76 80 84 86 87 90 98 101
64 63 67 69 68 66 64 62 61 59 57 57 54 54 56 60 57 58 49 51 50 52 51 49 50 53 56 57 56 60 66 70 68 69 76 80 83 85 90 95 98 103 106 108
61 61 63 64 65 65 65 63 62 61 60 59 59 59 58 57 56 55 54 53 55 51 51 53 56 60 60 59 62 64 69 69 73 78 81 83 88 90 95 101 105 108 110 114
62 60 57 56 60 62 63 63 63 65 64 58 58 59 61 60 60 59 55 56 58 55 58 62 66 69 71 68 70 70 76 81 84 86 91 93 94 98 103 106 109 112 118 122
65 64 60 58 58 58 58 59 58 60 64 60 60 63 66 62 61 60 62 63 62 63 65 69 71 75 77 75 74 80 88 90 91 92 96 99 103 104 107 112 116 118 123 127
69 65 63 62 63 63 62 61 62 64 65 65 64 63 63 64 67 70 72 70 71 73 74 72 75 79 83 83 82 87 91 95 97 97 102 106 110 113 116 120 123 128 131 132
75 74 73 73 72 69 67 67 66 68 68 65 61 61 62 67 69 73 76 78 79 79 81 80 81 85 89 90 93 97 100 103 105 109 112 114 116 122 127 127 130 130 134 138
83 83 82 83 81 77 75 77 76 75 75 74 71 69 71 72 76 79 81 82 84 85 86 88 90 93 96 99 103 105 108 111 111 115 118 120 124 130 132 133 138 141 144 146
91 88 89 88 85 84 82 82 83 86 85 78 75 73 78 82 83 84 87 88 90 89 88 94 95 99 103 109 112 112 112 115 119 122 124 126 135 140 138 140 144 145 146 140
97 96 92 92 92 92 92 91 89 86 85 84 83 86 86 85 89 91 92 94 97 99 99 102 103 105 112 115 116 118 121 125 128 131 133 137 142 144 142 138 138 133 130 124
101 102 102 103 102 100 98 96 94 94 94 92 93 95 98 99 99 101 103 105 107 108 109 112 113 118 121 117 119 120 125 127 134 138 139 139 138 136 132 128 126 116 109 107
107 108 105 107 109 108 104 98 98 103 102 103 105 106 104 104 105 108 109 111 114 116 118 120 120 121 122 125 126 130 132 135 136 134 134 129 125 122 119 111 107 103 102 103
104 110 110 111 111 109 104 105 108 109 107 107 108 109 108 109 111 112 114 119 121 125 123 123 124 124 128 130 132 135 130 128 131 128 124 122 116 108 107 105 104 101 101 99
105 102 105 108 110 111 111 111 108 110 112 111 111 112 111 111 112 113 115 119 124 128 128 125 127 131 133 135 125 120 120 121 122 119 113 108 104 102 99 100 102 102 97 93
116 114 111 107 109 110 111 110 110 110 109 110 112 110 109 115 120 123 127 133 132 130 131 133 135 133 126 121 116 114 114 113 111 105 101 99 98 98 98 98 98 95 88 82
111 112 113 113 113 114 117 119 121 120 121 119 122 124 124 120 119 120 123 128 127 123 121 124 122 118 112 110 106 105 106 104 101 99 98 98 98 97 94 90 88 82 76 72

GFSNW_250_spd_021.txt.gz
Wind_Speed
39 37 35 29 30 34 34 33 30 25 22 21 21 19 16 15 15 13 11 10 9 9 12 14 14 13 12 12 12 12 12 11 12 13 16 16 16 19 22 20 24 30 32 42
41 43 35 31 32 35 33 32 33 29 25 23 21 19 18 18 17 14 12 11 12 14 14 15 15 16 17 18 19 19 19 19 20 20 21 23 25 25 26 26 27 32 36 40
42 41 40 35 32 33 33 33 32 32 30 25 23 21 21 20 19 17 16 17 17 17 17 18 21 22 22 23 24 26 27 26 27 29 28 27 27 25 27 29 33 36 47 40
47 43 43 41 36 36 35 33 31 33 32 29 27 26 25 24 22 21 21 22 23 24 24 23 24 23 25 27 27 27 26 29 29 29 28 29 33 33 30 30 34 37 41 45
53 50 45 44 43 39 37 34 33 35 34 32 31 29 27 27 26 26 26 26 27 28 29 28 30 30 31 32 32 30 30 28 31 35 30 33 38 37 38 38 43 44 45 50
55 56 53 51 47 45 42 40 36 38 37 36 35 33 32 31 31 30 30 30 30 31 33 34 34 33 33 35 36 37 34 32 30 34 35 40 44 42 41 44 49 51 53 55
56 60 59 56 49 45 46 45 40 40 42 42 40 39 37 37 36 35 35 34 35 36 36 36 36 36 38 40 42 40 37 36 35 36 39 40 50 46 46 50 55 56 58 63
61 60 61 60 57 55 53 49 46 42 44 45 45 44 43 43 43 43 42 40 41 41 41 40 42 42 43 45 47 45 41 38 38 40 38 41 53 51 54 56 58 61 64 69
62 64 65 63 61 58 57 53 52 47 47 46 47 46 48 48 47 46 46 47 47 47 46 45 44 44 46 47 45 47 47 45 45 42 41 45 52 54 58 61 61 66 70 76
60 61 59 60 61 58 58 56 55 51 49 47 47 48 48 48 48 49 49 49 49 49 49 47 45 45 44 42 45 48 50 48 45 46 50 53 58 63 66 67 66 71 76 82
62 61 60 59 60 61 59 58 56 54 52 50 47 46 46 46 49 50 51 50 52 51 52 50 48 42 43 46 47 51 52 50 50 53 61 63 67 70 74 75 74 79 84 88
57 60 62 62 61 60 62 62 59 58 57 55 52 50 50 49 50 52 53 53 52 52 54 51 48 46 47 48 49 53 54 56 58 61 68 72 73 75 76 78 81 85 92 97
56 57 61 61 60 61 61 63 64 64 62 59 56 54 54 55 54 54 53 55 54 58 56 52 50 52 51 48 51 54 61 65 63 67 75 76 78 79 81 85 91 95 100 102
57 57 58 60 62 63 63 65 64 64 64 62 60 59 58 57 56 56 57 59 60 59 55 51 55 56 53 52 56 60 68 70 72 73 77 77 83 85 92 95 99 102 105 108
59 57 57 58 59 62 66 67 66 67 68 66 66 62 61 59 60 61 60 59 60 63 59 56 58 60 60 60 62 67 72 77 79 79 83 84 88 92 98 102 106 110 114 116
59 57 56 57 60 60 62 61 62 66 66 63 65 62 62 61 62 59 59 62 64 65 61 60 60 64 67 66 70 74 81 83 85 85 86 91 98 100 106 110 114 114 119 122
64 60 59 59 58 57 58 58 61 61 61 58 55 53 59 60 63 62 63 63 62 62 62 61 67 72 76 75 76 82 85 86 89 92 96 101 106 111 115 117 118 121 125 126
72 69 68 64 62 61 60 60 62 64 64 61 54 51 55 62 66 68 66 66 67 65 66 69 73 73 77 79 83 86 88 91 97 100 103 107 113 118 121 122 124 126 126 125
77 77 75 73 68 64 64 68 68 68 68 63 57 56 59 60 68 70 71 72 73 73 75 75 77 80 83 85 87 91 97 102 103 107 112 115 118 122 126 125 125 124 126 126
82 83 83 80 76 75 72 75 74 72 71 67 67 68 70 73 75 76 79 80 82 82 82 85 87 87 90 95 99 101 105 109 111 112 116 120 123 125 127 127 125 123 119 116
92 90 87 85 85 85 83 83 83 82 80 76 75 78 80 82 83 84 83 83 85 85 86 90 91 91 99 101 105 109 109 113 117 121 120 120 121 121 121 120 119 117 113 111
93 91 92 92 92 93 92 92 89 86 86 84 86 88 90 90 91 93 93 94 96 96 96 99 100 104 108 109 110 115 118 118 119 121 118 119 119 119 118 116 114 108 108 109
97 98 97 97 96 98 96 94 94 93 93 93 93 95 96 97 98 100 101 103 104 106 107 109 111 113 112 114 117 119 118 120 118 121 119 116 116 113 114 113 110 106 106 106
104 103 104 101 99 98 97 98 98 98 97 98 99 101 102 101 105 106 108 108 109 112 111 113 115 113 111 109 114 118 115 116 116 115 114 114 110 109 109 109 107 104 105 101
106 102 103 100 100 99 100 103 103 104 104 105 105 104 104 105 106 108 110 113 115 116 116 113 112 113 115 118 114 113 117 114 114 114 113 111 109 107 103 104 103 104 100 95
101 100 96 97 102 104 104 106 105 104 101 102 103 105 105 108 107 104 105 108 110 110 108 109 111 115 117 113 116 117 112 111 113 112 110 107 104 101 99 99 100 97 92 86
107 104 105 104 105 110 105 100 105 106 104 106 107 106 106 102 104 110 112 110 108 110 109 113 118 116 116 114 110 110 110 110 111 106 103 101 99 98 96 93 91 88 83 79

GFSNW_250_spd_024.txt.gz
Wind_Speed
49 48 42 41 35 36 38 35 32 30 28 26 24 20 17 15 13 12 11 9 8 7 5 5 7 8 9 11 12 12 13 13 14 15 16 17 19 20 21 21 23 27 29 34
52 49 41 39 36 37 38 36 32 29 28 27 24 21 18 16 15 15 13 11 10 8 8 9 11 12 12 14 16 17 18 20 21 23 24 25 23 23 21 21 24 28 31 36
52 51 42 36 37 36 37 38 35 30 27 27 24 21 20 19 18 16 14 13 13 13 14 14 15 16 15 17 19 20 21 23 24 22 24 26 26 24 24 25 26 27 36 36
55 49 42 41 39 39 39 37 36 34 32 29 26 25 23 23 21 19 18 18 17 17 18 19 21 22 22 22 24 26 26 28 29 28 28 32 31 29 28 29 33 33 37 42
56 52 45 44 40 39 39 41 35 35 34 33 30 28 27 26 24 23 22 22 21 21 23 23 25 27 28 29 29 30 29 29 32 35 34 36 36 33 33 37 38 38 41 45
58 51 46 49 45 42 37 36 37 37 35 33 33 32 32 30 29 28 27 26 26 27 27 27 29 32 33 33 33 33 33 33 33 37 36 40 44 40 42 42 43 44 47 52
57 55 49 46 45 46 41 38 36 39 37 36 37 36 36 34 33 31 30 31 31 32 32 33 34 36 38 39 40 41 42 41 40 37 36 41 47 42 43 44 48 50 54 60
59 56 54 55 48 46 46 42 41 38 40 39 36 39 38 38 39 38 37 37 39 39 39 40 42 43 43 43 45 44 44 44 42 40 37 41 47 43 45 47 56 59 64 67
57 58 57 59 57 53 50 48 45 45 44 42 41 39 41 44 44 44 43 44 44 43 43 44 47 46 48 47 48 47 47 43 44 44 42 44 47 47 49 53 57 64 70 73
58 58 57 56 57 59 57 54 52 50 49 46 45 44 43 44 46 46 46 47 48 46 46 47 47 48 50 49 49 48 47 46 48 47 49 47 47 50 55 59 63 69 72 76
65 62 60 59 58 58 60 59 59 57 55 54 52 50 50 49 47 46 46 45 45 43 46 48 49 50 49 49 50 51 49 48 51 50 53 50 55 58 62 67 71 73 77 80
68 70 70 63 61 60 61 62 60 61 62 61 57 54 53 52 51 49 46 46 46 48 49 50 50 50 52 54 51 50 52 54 53 52 58 58 60 65 70 73 75 79 82 87
54 59 67 69 65 64 64 64 65 66 67 64 62 59 56 56 56 54 53 52 52 53 54 54 53 55 54 58 56 54 59 58 57 57 66 65 70 73 74 79 83 84 91 96
51 52 57 62 63 63 65 65 64 64 61 58 61 60 59 60 60 60 59 58 58 58 58 57 57 59 58 57 57 57 64 63 62 64 68 72 74 77 80 85 87 92 98 102
53 53 52 53 57 61 63 64 63 62 61 60 60 61 64 64 62 63 64 64 65 65 63 60 61 62 63 61 58 61 66 67 67 68 72 75 79 83 87 88 93 100 105 107
56 56 55 56 55 56 58 58 58 60 60 60 60 61 62 63 65 67 68 69 69 68 65 61 62 65 63 59 59 68 70 70 73 75 79 83 87 88 91 98 102 106 109 114
60 58 59 58 57 58 57 54 58 59 60 60 60 61 63 67 68 69 69 68 64 60 61 60 60 63 64 63 67 72 74 77 81 82 84 88 92 98 102 104 107 113 116 121
68 64 62 60 60 59 58 59 60 59 59 58 53 51 57 64 64 67 64 63 62 60 60 60 63 64 69 70 75 79 80 81 85 89 93 97 101 104 107 111 115 116 118 123
74 72 69 66 63 58 59 61 62 63 61 57 54 54 58 60 67 68 69 68 66 64 65 68 69 71 75 79 82 85 88 90 94 98 101 104 106 109 112 116 120 119 124 124
80 78 76 73 71 70 70 71 70 69 68 63 59 60 62 64 69 71 71 70 72 69 72 77 77 78 85 89 91 92 94 98 101 105 107 110 114 117 120 123 124 123 124 121
86 85 84 81 79 79 80 80 80 78 73 69 67 68 70 71 73 75 77 77 78 79 79 84 83 85 93 96 96 98 102 104 107 111 114 117 119 118 118 117 119 121 122 122
87 84 86 89 89 88 90 90 87 82 76 71 74 77 79 79 82 84 85 87 87 87 87 89 89 93 97 98 100 103 105 108 111 111 110 113 114 117 119 119 119 118 118 116
90 91 92 93 94 96 96 92 86 85 82 80 81 84 86 87 88 89 92 94 93 93 94 95 97 100 101 103 104 107 109 111 111 112 115 114 112 113 114 116 117 115 114 114
96 97 97 96 97 97 96 95 92 90 90 88 88 90 91 91 92 93 94 97 98 98 98 100 102 101 101 103 105 108 111 109 111 112 112 111 110 111 113 115 111 111 110 107
97 100 100 99 99 99 98 98 97 95 95 93 94 94 94 96 96 98 99 102 102 98 99 101 101 103 105 107 108 108 108 109 110 109 109 109 110 110 110 111 109 106 105 100
97 100 103 103 100 100 100 100 100 99 99 99 100 102 102 103 102 102 105 103 101 100 101 102 103 107 108 103 103 106 105 104 104 105 106 108 108 106 106 104 102 101 97 89
92 96 102 106 106 107 105 106 107 105 106 104 101 102 103 101 103 105 103 101 101 103 104 108 109 105 107 105 106 104 102 104 106 107 107 105 104 103 99 96 96 92 86 83

GFSNW_250_spd_027.txt.gz
Wind_Speed
50 49 47 45 41 40 38 36 37 35 33 31 31 29 24 21 16 15 14 12 12 11 7 7 7 6 7 9 10 10 12 15 16 19 22 22 23 23 25 27 29 29 29 35
54 50 47 46 44 40 38 37 36 34 32 32 31 28 24 21 17 15 15 14 13 12 11 11 10 10 10 11 12 13 15 17 18 21 24 26 25 24 25 25 27 31 34 38
57 53 49 49 47 44 39 39 37 34 33 31 30 27 23 21 18 17 17 17 16 14 14 13 13 15 16 17 17 19 20 22 23 25 26 28 29 29 30 33 34 34 39 36
59 55 52 50 47 44 38 40 39 36 33 32 31 27 24 22 21 20 19 20 19 18 18 17 17 18 19 21 22 23 24 26 28 30 31 34 35 34 35 37 38 38 42 45
61 57 54 51 48 43 42 41 40 37 34 33 30 29 27 25 24 23 23 23 21 20 20 21 21 21 23 25 26 27 28 30 32 36 37 42 44 42 42 42 41 41 45 48
61 58 54 54 47 42 40 41 41 38 37 35 32 30 28 28 27 26 25 25 25 25 25 26 26 27 28 29 31 33 34 34 35 40 40 47 48 47 46 47 46 47 49 50
64 60 57 52 46 42 39 38 41 41 40 37 35 34 33 31 31 31 30 30 30 31 30 31 33 33 35 37 40 39 40 40 40 41 42 49 49 46 46 48 47 48 49 50
64 60 56 54 50 42 41 38 36 37 41 38 36 34 32 34 33 33 35 35 35 36 36 38 39 40 41 43 45 45 43 44 44 45 44 47 47 48 48 50 52 49 50 54
63 60 57 56 53 49 43 44 40 41 38 35 36 37 35 32 32 36 38 40 41 42 43 44 45 46 48 49 48 48 48 49 50 47 46 47 49 47 50 47 47 53 57 62
66 62 61 59 54 51 48 46 46 44 41 39 39 38 38 37 39 40 37 38 41 45 46 48 48 48 49 47 46 51 52 50 52 53 53 49 48 52 52 54 56 59 61 68
65 63 66 63 59 53 50 50 49 46 45 45 43 44 44 42 42 42 44 43 45 47 47 46 47 47 47 49 50 53 56 55 57 59 58 52 52 53 55 59 62 64 69 74
64 63 64 64 62 62 59 55 56 55 53 52 51 48 48 50 49 50 50 51 52 53 53 50 48 49 51 52 54 58 62 61 62 65 63 60 59 59 61 64 64 70 75 78
64 64 63 62 62 60 59 60 60 61 60 58 56 57 56 56 58 58 58 60 59 58 57 56 54 55 56 57 59 64 70 68 66 64 67 65 64 67 67 71 74 78 81 85
68 68 65 64 62 60 60 60 60 60 59 58 59 61 61 62 63 64 65 66 66 66 63 61 59 60 60 61 65 69 76 69 66 65 67 67 68 72 74 77 80 84 88 93
63 67 70 65 65 65 63 63 64 63 61 60 61 60 63 65 66 68 71 67 64 65 64 62 63 63 66 63 66 66 70 69 68 66 69 71 73 75 79 85 89 91 96 102
58 60 62 68 71 72 73 75 74 73 73 67 65 65 66 67 68 67 65 63 64 64 63 62 65 69 71 65 62 69 72 70 70 70 72 75 78 82 87 90 93 99 103 105
59 57 55 55 57 58 59 58 64 66 67 68 67 65 66 68 69 68 67 65 64 65 63 63 67 68 67 63 65 73 71 73 73 75 78 81 86 90 93 96 100 103 106 109
65 63 59 57 54 53 53 53 56 58 59 59 55 54 61 64 62 62 64 64 62 62 63 63 66 66 68 67 74 75 75 78 79 82 85 89 92 96 99 102 104 107 110 114
71 68 65 62 58 56 58 59 60 59 57 56 52 53 58 60 62 61 63 65 67 65 64 66 66 64 68 74 75 78 81 82 85 88 91 95 100 101 104 105 108 111 116 120
77 74 72 66 64 63 67 65 64 64 64 58 56 59 59 61 66 71 73 71 71 68 65 69 69 69 76 82 83 84 85 87 91 95 98 102 102 104 105 109 112 116 119 119
82 80 77 74 74 74 74 74 71 68 66 62 59 61 65 69 72 75 76 75 75 74 71 76 75 75 84 88 89 90 91 93 95 98 101 103 105 108 111 114 117 119 120 123
87 86 84 81 78 81 84 83 79 75 73 66 67 69 74 77 78 79 79 81 82 82 80 81 82 84 91 92 92 93 93 95 98 102 106 107 109 111 112 113 117 120 125 124
86 88 90 89 89 90 90 85 81 81 79 77 78 80 82 84 85 87 89 90 89 88 87 87 89 93 94 94 94 98 100 103 105 109 111 113 114 116 117 119 122 123 121 121
94 92 93 96 97 96 93 88 86 87 87 85 83 85 87 89 91 94 95 97 96 93 93 93 96 97 99 101 104 106 109 109 111 112 111 112 113 114 114 118 121 117 115 115
96 96 98 98 98 96 94 94 93 92 93 91 91 92 91 92 94 95 96 98 99 99 100 101 102 103 106 109 110 109 110 108 111 113 112 111 111 113 114 115 114 114 112 109
105 101 99 101 101 102 101 101 99 99 99 100 101 100 99 100 99 99 101 100 100 102 104 104 106 108 111 110 109 109 107 107 107 106 106 110 112 110 108 109 110 108 104 100
101 102 103 103 106 109 107 105 104 104 105 106 104 104 105 105 105 103 102 103 104 104 106 107 109 107 105 103 103 104 104 105 106 107 108 107 105 105 105 103 104 100 98 96

GFSNW_250_spd_030.txt.gz
Wind_Speed
52 50 47 47 42 40 39 37 36 34 35 32 29 27 26 24 22 19 20 19 18 14 12 11 10 6 5 5 5 7 9 11 13 15 19 20 21 22 22 25 31 28 30 39
53 48 48 46 43 42 41 40 39 36 36 33 29 26 26 25 23 20 20 20 16 13 13 12 10 8 8 8 9 11 14 16 18 20 23 26 27 29 29 30 33 38 39 42
52 48 49 45 46 43 40 41 38 35 34 32 29 29 30 27 25 21 19 18 16 15 14 14 13 13 12 13 14 15 17 19 22 24 26 29 30 33 33 36 36 37 47 44
53 50 51 48 46 44 44 40 38 36 35 31 32 33 32 28 26 23 19 18 18 18 18 17 16 17 17 17 17 18 19 22 24 27 30 34 34 36 38 39 41 42 45 46
58 52 51 50 47 46 42 38 37 35 34 32 33 35 33 30 26 24 22 20 20 20 20 20 20 21 21 20 21 22 23 27 31 34 36 40 40 43 44 44 45 46 46 45
59 55 53 49 49 46 42 40 36 34 33 33 35 34 32 30 28 26 24 22 20 22 23 24 24 25 25 26 27 28 30 33 36 39 39 41 40 44 47 49 49 48 48 49
63 59 53 51 50 48 45 43 35 36 36 36 36 34 33 30 29 28 26 24 26 25 27 27 28 30 31 32 35 35 37 38 41 43 41 45 46 45 48 49 50 52 49 52
66 62 58 52 52 50 47 45 42 36 39 38 37 35 33 33 31 29 30 29 29 30 31 32 33 35 36 39 42 43 44 45 44 44 43 46 49 43 50 51 53 51 54 52
66 64 60 55 56 53 50 45 42 38 37 39 40 38 38 33 31 32 29 31 31 31 33 34 37 38 40 42 45 46 46 47 47 46 47 50 53 51 51 55 55 55 55 59
65 66 63 59 55 56 53 48 40 38 33 34 37 38 38 34 34 33 33 31 32 36 34 34 36 37 44 45 46 49 48 48 50 51 52 55 57 57 62 61 58 60 60 60
65 65 65 63 58 55 54 53 46 40 40 34 33 34 32 33 31 32 33 35 37 38 38 41 43 44 48 52 54 54 54 55 56 57 60 61 61 63 63 63 64 63 63 64
63 60 64 66 60 56 54 53 54 48 39 41 39 40 38 38 39 37 41 39 45 44 47 49 52 55 57 59 61 63 61 63 63 62 65 67 68 64 63 64 65 64 67 71
61 61 62 65 64 60 57 55 52 50 49 46 44 43 43 44 45 46 47 48 50 52 54 57 59 61 64 65 67 68 67 69 67 64 67 71 70 69 68 67 67 71 75 80
60 59 63 64 64 62 59 59 58 55 55 51 51 51 53 53 55 56 54 54 56 56 61 62 64 66 66 70 67 63 69 69 69 69 70 73 69 71 71 72 73 76 81 85
62 60 60 60 63 65 61 61 63 63 60 57 59 57 60 62 60 60 60 60 63 64 66 67 69 68 70 65 62 65 70 69 71 70 69 71 72 73 76 77 81 84 88 92
64 62 61 59 60 63 61 59 59 64 65 61 60 60 59 60 61 61 61 62 64 66 66 68 70 71 72 65 62 68 70 72 73 72 69 70 72 74 77 81 85 88 92 96
66 66 65 67 66 64 63 61 63 63 63 61 61 60 61 62 64 67 69 70 70 71 72 69 73 74 69 63 61 73 76 73 72 72 74 74 77 79 83 88 90 92 95 99
59 58 62 66 64 65 66 68 68 67 66 66 62 62 67 71 71 74 73 73 73 71 71 68 69 67 66 61 73 76 76 75 74 74 77 81 84 87 90 92 92 97 101 106
59 58 58 59 58 61 68 69 70 71 70 70 69 70 67 66 65 65 66 67 68 66 64 64 64 62 66 75 79 77 75 77 79 82 85 87 90 92 95 98 101 103 107 112
67 64 60 58 59 64 65 63 61 58 57 56 55 56 57 58 61 64 66 66 67 65 65 69 67 65 75 82 80 80 81 82 86 88 90 94 95 97 99 103 105 110 115 118
75 70 66 65 67 68 69 67 63 62 60 57 56 58 61 64 67 72 74 72 73 71 69 74 71 69 76 84 85 87 89 90 93 96 97 98 99 102 106 110 112 116 121 125
81 78 76 75 76 77 76 72 69 66 64 59 59 64 70 71 73 76 74 75 77 75 73 76 76 78 82 86 90 93 96 98 100 101 102 105 108 109 112 115 117 123 125 123
87 87 86 87 86 87 84 77 76 74 70 72 75 77 78 78 79 82 81 82 83 84 84 83 84 87 91 94 96 98 99 102 103 104 107 110 111 114 117 118 122 124 123 121
92 93 95 93 93 92 90 84 83 83 82 81 80 83 84 83 86 88 89 92 93 94 94 94 96 98 97 98 100 102 104 106 108 110 113 114 115 117 119 120 119 117 116 117
90 92 94 96 97 96 94 93 91 90 90 90 90 90 91 91 94 92 94 97 100 100 100 100 100 101 103 105 108 111 113 114 115 115 116 116 118 117 115 115 113 113 114 115
91 92 94 95 97 99 97 96 95 96 96 94 93 94 95 96 97 99 101 101 101 104 104 105 107 110 110 113 115 115 116 114 112 113 112 110 112 112 111 113 115 115 114 111
87 89 91 95 93 94 100 103 101 101 99 98 97 98 100 101 103 104 104 104 105 109 112 111 111 115 116 112 112 111 109 107 107 109 113 115 114 115 115 115 114 111 107 99

GFSNW_250_spd_033.txt.gz
Wind_Speed
54 56 53 49 48 44 42 42 38 33 33 31 30 31 29 25 24 23 20 19 18 17 12 12 11 9 8 9 8 7 7 8 11 12 14 16 18 20 22 25 30 29 33 40
57 57 54 48 48 45 43 39 37 33 30 31 33 32 29 26 25 23 21 19 18 16 14 14 11 11 11 10 10 9 10 11 14 16 19 21 23 25 27 29 32 39 40 44
58 59 54 48 45 45 45 40 35 33 32 33 33 30 29 27 26 23 20 20 19 18 14 13 13 14 13 12 12 13 14 14 15 17 19 23 26 29 32 34 35 37 41 42
59 59 52 46 45 46 41 39 38 38 34 39 34 29 27 27 27 24 20 20 20 18 15 15 16 16 15 15 16 16 16 18 19 22 26 29 33 35 37 37 39 41 44 45
60 59 51 45 43 44 40 42 41 38 36 34 32 30 28 28 29 26 25 20 19 18 19 19 18 18 18 18 19 19 21 23 26 29 33 35 39 39 41 40 41 44 45 47
61 55 52 45 46 42 42 43 40 39 37 34 34 31 29 30 31 26 24 22 20 23 17 18 19 20 20 21 22 25 25 29 33 37 39 42 41 43 45 46 45 48 46 50
57 58 51 46 45 45 47 48 44 41 38 33 34 30 30 32 31 28 25 25 26 21 19 19 20 22 22 25 26 29 30 33 37 40 41 42 42 42 47 50 51 56 55 53
59 56 51 48 46 49 47 44 43 39 36 32 29 31 30 34 32 29 30 28 23 24 25 25 27 27 26 26 27 28 32 35 38 39 41 44 44 45 50 55 57 61 62 62
64 60 52 49 49 50 46 45 43 38 32 30 30 29 32 34 33 32 30 29 27 28 28 24 20 22 23 27 31 32 36 41 46 47 48 51 52 52 57 58 61 63 65 66
63 65 58 53 51 51 49 48 43 39 37 32 26 28 36 34 33 34 33 29 28 25 25 25 29 28 28 32 38 42 45 50 53 53 56 57 60 60 64 65 64 65 68 67
60 67 63 59 55 52 51 49 46 43 41 35 32 30 36 39 38 36 32 29 27 26 27 30 33 35 39 41 43 49 53 57 60 62 63 60 55 56 63 67 65 65 66 66
60 60 68 62 58 53 52 53 49 47 45 40 33 30 27 30 32 32 30 29 33 31 34 37 38 40 45 48 51 55 57 63 66 67 68 60 59 60 64 68 67 67 66 65
62 61 60 66 63 58 54 52 53 50 47 46 43 38 35 32 33 34 37 37 37 37 40 42 45 49 51 52 55 60 65 69 69 68 69 68 64 63 66 68 67 66 68 70
59 62 61 64 64 63 62 56 53 52 51 49 50 47 40 37 39 41 41 41 43 45 48 52 54 57 57 60 63 65 70 70 72 72 75 72 68 71 72 69 68 70 73 77
58 59 62 59 62 64 63 62 58 55 53 51 50 50 48 46 45 45 47 50 54 57 60 62 63 63 62 59 61 65 70 73 73 73 76 74 72 76 76 74 74 76 80 84
58 57 59 60 59 59 60 61 62 60 56 56 52 52 54 55 55 57 58 60 62 62 63 62 61 66 65 62 65 68 76 75 76 75 72 72 75 78 78 77 79 82 88 91
58 58 57 57 60 60 60 60 65 64 61 59 57 53 55 61 62 61 62 64 65 64 64 63 65 68 70 72 69 76 77 74 74 74 74 76 79 82 81 82 86 91 96 100
54 58 61 59 57 57 58 59 61 62 62 60 58 56 59 61 62 65 68 68 69 67 67 66 72 75 76 69 71 70 71 72 74 75 77 80 84 84 85 89 94 99 103 107
54 55 59 59 59 57 57 58 59 60 57 56 57 57 60 61 63 66 70 73 74 72 71 74 76 71 68 68 67 70 72 76 77 80 82 83 86 89 92 96 100 105 107 110
56 55 55 59 62 62 62 61 59 57 58 56 58 60 61 67 71 73 75 74 75 74 77 80 69 62 67 72 72 75 78 78 79 82 85 87 91 94 98 103 106 107 110 116
57 55 56 58 63 64 64 62 61 61 60 61 61 65 71 75 78 82 84 82 82 77 71 73 68 66 72 78 78 79 81 83 86 89 93 96 99 103 105 108 110 114 118 123
65 64 64 62 63 62 61 58 58 57 59 58 63 70 74 75 78 77 74 75 75 73 72 74 71 72 76 79 82 84 87 90 93 96 99 102 106 106 109 112 117 118 122 120
74 73 73 73 73 72 66 62 59 60 60 61 66 68 70 72 75 78 79 79 78 80 79 79 81 83 84 86 89 92 94 95 96 99 104 106 108 110 113 117 120 122 122 120
83 83 83 83 82 79 74 72 71 72 72 72 73 75 77 77 81 83 86 88 88 89 89 90 93 92 92 94 96 98 101 103 105 107 110 112 114 114 119 122 121 119 117 118
92 92 92 91 89 87 85 84 82 81 81 81 81 83 84 85 89 90 91 93 95 96 98 99 99 100 101 103 104 106 108 109 111 113 115 116 115 119 118 119 116 114 112 111
94 97 97 97 96 96 96 95 94 92 91 90 91 92 93 93 96 98 100 102 104 106 107 109 110 110 111 113 114 112 112 113 115 118 118 118 118 114 115 114 112 110 108 108
86 92 96 98 97 99 102 104 105 104 102 101 99 99 100 102 104 105 104 107 106 108 110 112 113 114 115 115 116 117 118 117 119 118 118 114 113 114 113 109 108 108 105 103

GFSNW_250_spd_036.txt.gz
Wind_Speed
39 41 45 49 56 56 53 52 45 40 44 40 36 30 29 32 29 25 22 21 20 18 15 11 11 12 12 10 10 9 8 7 8 10 12 14 15 17 20 24 27 28 32 35
42 47 50 50 57 56 53 51 46 43 40 37 31 29 30 30 27 25 22 20 20 18 15 12 13 13 13 11 11 10 10 11 12 14 15 15 17 20 24 28 32 36 36 39
48 52 55 57 57 54 53 49 45 40 37 33 29 30 34 30 26 24 22 19 19 17 16 15 16 15 14 13 13 12 13 15 16 17 18 20 23 26 28 30 34 36 37 39
53 56 59 62 56 54 50 45 46 45 34 34 33 36 35 31 27 25 22 20 19 18 16 18 17 15 15 15 15 15 16 18 18 18 21 25 29 33 35 36 39 39 40 41
57 60 65 61 57 50 45 45 45 35 34 31 34 36 33 30 28 24 22 19 19 20 22 21 18 15 15 15 17 18 19 20 21 22 26 30 33 36 39 39 43 44 45 47
61 65 61 57 53 48 46 46 39 38 33 34 34 35 31 30 25 24 24 23 22 21 19 17 17 15 14 17 19 19 21 22 23 25 26 29 33 38 40 43 48 50 53 55
64 65 62 52 49 47 45 48 45 40 38 35 37 35 29 27 25 27 26 28 26 19 19 20 16 16 16 19 21 22 24 24 25 26 30 34 38 44 45 51 56 59 61 60
63 66 62 56 47 46 48 45 42 42 39 36 33 30 31 31 26 28 29 27 23 23 24 21 18 19 22 24 25 25 24 25 27 31 36 40 43 47 50 55 61 59 59 60
63 63 62 57 47 45 46 44 43 42 39 34 31 31 31 32 28 30 30 29 27 27 25 23 23 23 21 24 27 26 26 30 36 39 42 44 48 53 55 59 61 62 64 64
64 64 63 57 49 42 45 44 46 43 40 37 34 29 31 32 28 30 31 32 31 30 29 26 25 22 23 25 26 31 33 38 43 47 49 52 55 58 62 61 62 67 66 65
62 62 59 54 51 44 44 47 47 44 42 39 34 31 28 26 28 29 31 32 34 32 30 28 29 26 26 31 33 36 38 44 49 52 56 56 61 64 63 63 67 70 69 68
63 62 57 56 53 46 46 47 46 45 43 40 37 35 31 32 29 31 32 35 35 33 34 31 29 32 34 34 36 41 46 54 56 59 62 64 64 64 67 69 72 72 71 71
62 62 56 58 54 50 47 48 49 46 43 40 39 36 35 36 32 30 31 35 36 35 34 36 38 38 39 41 43 50 55 59 63 65 65 66 67 71 75 74 73 73 73 74
67 66 61 61 55 54 50 47 47 48 49 47 45 42 39 40 40 36 31 33 35 36 37 39 40 42 44 48 54 59 65 66 66 65 69 69 74 78 77 75 75 75 75 75
60 60 62 62 64 58 55 52 50 50 49 51 52 47 46 45 44 44 45 41 42 45 45 45 47 52 54 56 58 63 70 71 70 70 74 76 78 79 76 74 75 76 77 80
55 58 56 56 59 65 61 56 56 54 54 52 51 52 52 50 50 50 54 56 55 54 52 55 58 61 62 59 60 69 73 72 74 76 79 83 84 79 77 77 77 80 82 85
55 55 55 56 57 58 59 63 63 60 59 56 53 53 54 54 57 59 58 58 60 60 63 63 65 67 66 63 64 73 73 76 79 80 84 83 79 77 79 80 82 84 86 90
49 51 53 53 54 55 59 58 62 65 64 62 58 59 61 60 61 63 65 65 63 62 61 63 68 69 68 65 71 74 77 79 79 84 84 80 79 81 83 84 87 90 93 97
54 50 45 50 56 56 54 56 57 60 59 60 59 59 62 65 69 70 71 71 70 68 67 67 65 63 64 73 75 77 79 81 86 85 82 82 84 85 87 90 94 96 100 103
54 51 47 44 46 55 58 56 55 54 54 53 57 62 63 68 72 75 76 75 73 70 71 72 70 68 73 79 79 82 86 87 81 81 83 85 87 90 92 95 98 102 106 109
53 52 52 51 51 51 51 53 53 55 53 53 55 58 62 67 70 72 72 70 70 70 72 75 71 70 77 84 86 83 79 81 84 86 88 90 94 97 100 104 106 109 113 117
59 56 55 54 54 54 53 51 52 54 56 56 62 67 69 69 71 72 72 74 74 73 74 76 76 78 79 80 80 82 84 85 88 91 95 99 102 106 109 112 116 117 119 121
66 64 63 61 58 56 52 50 50 54 58 62 67 70 72 71 73 75 76 78 78 80 78 76 76 78 79 80 83 86 89 92 95 99 102 106 109 112 116 119 120 123 123 123
72 71 70 70 66 60 56 56 57 58 60 62 65 68 69 70 72 74 75 77 78 78 79 79 82 85 87 90 92 94 97 101 104 108 111 113 117 122 124 125 125 126 126 125
78 74 75 74 72 70 68 67 67 67 67 68 68 70 73 74 77 79 82 85 87 88 88 90 92 94 96 98 101 104 107 110 114 117 120 122 123 125 126 126 124 121 116 115
83 84 84 83 83 81 80 78 78 78 79 80 81 82 83 85 87 89 92 95 96 97 98 100 103 105 108 110 112 115 118 119 121 123 123 124 124 124 122 117 114 111 110 108
85 86 88 90 90 91 90 89 87 88 88 89 90 91 93 95 97 98 100 103 106 108 109 111 113 116 117 119 122 124 125 126 125 123 122 120 116 115 115 111 110 104 102 98

GFSNW_250_spd_039.txt.gz
Wind_Speed
55 58 52 41 38 44 48 52 52 51 47 42 36 37 33 28 28 30 30 30 28 24 20 17 15 12 11 12 13 13 11 11 10 10 10 12 14 15 18 20 22 25 27 30
58 59 49 41 43 49 53 58 56 50 43 39 42 35 32 31 32 31 31 29 26 22 18 16 12 13 13 14 13 12 11 11 12 12 14 17 18 19 21 24 29 31 34 35
65 55 45 43 49 54 59 62 54 50 44 45 42 36 33 32 34 32 29 26 24 21 19 16 14 15 16 16 15 14 13 14 15 16 18 19 20 22 25 28 31 33 34 36
62 51 45 48 53 56 62 57 51 46 44 41 39 35 33 33 34 31 26 25 24 22 21 19 16 17 17 17 16 15 16 16 18 20 21 22 24 26 27 28 30 33 38 43
58 48 51 52 54 61 65 58 51 45 47 46 42 35 32 33 32 30 27 25 23 21 21 19 18 16 17 18 19 18 18 19 21 22 22 24 26 27 28 32 35 38 41 47
53 50 54 56 57 64 62 58 53 47 42 40 36 32 31 34 33 30 28 26 24 21 19 18 16 18 21 20 20 20 20 22 23 25 24 26 29 30 33 38 43 45 47 52
51 54 56 56 59 59 58 55 51 45 42 40 39 36 33 36 34 30 29 28 25 21 16 18 20 21 20 20 20 21 23 24 26 28 25 25 31 37 40 45 50 52 54 58
55 59 61 61 60 58 52 52 48 47 48 42 33 34 37 37 35 32 30 29 26 24 22 21 22 22 23 22 24 25 27 28 26 27 29 30 38 43 46 49 54 57 61 62
58 62 62 61 60 55 53 51 47 48 45 33 32 36 38 37 32 32 32 31 29 27 28 26 24 24 26 26 29 30 28 27 26 31 33 36 43 47 51 55 58 63 64 65
61 64 62 61 58 54 51 46 45 47 41 35 37 36 39 38 33 33 30 29 31 31 30 28 28 28 28 29 31 30 29 29 33 37 38 41 50 52 54 59 63 63 66 70
62 65 66 61 58 52 47 47 46 46 41 38 39 36 36 37 31 30 31 30 33 33 33 32 33 31 31 31 33 36 35 37 40 40 43 48 55 56 59 64 64 67 69 75
62 66 66 57 53 50 47 46 46 46 46 43 42 40 36 35 32 28 31 34 32 33 35 36 36 34 35 34 34 38 40 44 43 46 49 55 58 62 64 66 67 69 74 78
61 64 67 60 55 49 47 44 47 45 46 45 43 41 39 37 35 33 31 32 32 34 37 38 38 37 39 39 40 42 46 49 48 52 58 63 64 67 68 69 71 74 77 82
63 63 61 63 59 52 45 42 42 45 47 49 47 44 42 41 39 37 37 37 34 32 37 40 40 39 39 39 40 43 53 55 56 59 64 66 69 70 71 73 76 79 79 83
65 60 59 62 62 55 49 46 44 44 48 49 49 47 47 46 45 44 42 43 44 43 41 38 38 40 41 43 46 53 63 62 62 64 69 71 73 76 77 77 79 80 84 84
65 65 61 61 60 56 52 51 47 45 47 48 50 50 48 49 50 51 50 50 50 50 49 49 50 54 52 49 55 65 69 69 71 71 74 76 77 77 77 80 81 86 84 82
64 64 60 60 60 60 56 54 54 52 50 48 48 49 52 57 58 59 59 59 57 55 55 56 57 58 58 56 62 70 69 71 73 75 74 78 78 79 82 84 88 87 85 86
61 64 62 61 61 58 58 57 53 53 52 51 49 50 55 57 58 60 62 63 62 61 61 63 63 61 62 62 70 70 73 75 77 78 79 79 82 84 84 89 90 87 90 92
60 61 63 64 64 63 62 62 61 60 57 56 55 57 59 59 62 64 65 65 64 63 63 64 64 63 66 74 76 77 78 81 81 80 81 84 85 88 90 89 90 92 94 98
57 60 61 62 63 64 61 57 55 56 57 59 63 68 69 70 72 74 73 72 70 68 70 72 70 69 76 81 81 82 80 78 79 82 83 86 90 90 91 92 95 97 100 104
52 53 50 52 53 55 56 55 57 59 56 56 59 65 69 71 73 77 78 75 75 71 70 73 70 68 73 76 77 77 80 82 84 86 88 89 90 92 94 97 101 105 109 112
53 54 54 53 50 50 47 42 40 43 50 58 66 69 70 70 70 71 69 71 71 70 70 70 66 68 74 77 78 81 84 86 87 88 90 91 94 97 101 104 109 113 117 121
57 56 56 56 56 53 49 46 46 52 55 58 62 64 65 64 66 69 70 71 71 71 70 70 73 77 80 80 81 82 84 85 88 90 94 98 102 105 109 113 116 121 125 129
63 61 60 61 57 52 51 53 55 56 56 58 59 61 62 63 66 68 70 72 72 72 74 75 79 81 82 83 83 84 87 90 95 99 103 106 110 114 118 122 125 128 130 129
68 68 66 64 62 61 60 60 60 61 61 62 64 65 66 67 69 71 73 75 75 75 76 79 81 83 84 87 90 94 97 100 104 108 112 115 118 121 124 127 128 128 122 122
75 75 73 70 70 69 69 69 69 69 69 69 70 71 72 74 76 77 79 81 82 84 87 88 91 94 95 98 101 104 107 110 114 117 120 123 126 126 128 124 119 118 118 119
76 77 78 76 77 78 78 78 78 78 78 78 79 80 82 83 84 85 88 91 93 95 98 100 103 105 107 108 111 114 116 119 122 126 126 123 120 115 114 114 118 116 110 101

GFSNW_250_spd_042.txt.gz
Wind_Speed
55 51 49 54 52 48 45 42 43 44 43 45 45 41 37 35 30 27 26 24 25 24 23 21 19 18 16 14 13 13 12 12 10 8 8 8 9 11 13 16 18 20 22 27
52 47 55 53 50 51 47 46 48 46 47 49 46 42 36 33 30 27 26 26 26 25 25 23 21 17 16 15 15 15 13 12 11 10 9 11 13 15 18 19 22 24 27 28
50 53 53 50 55 53 49 53 51 50 52 52 47 41 36 37 29 24 27 29 30 28 26 23 21 19 17 15 14 13 13 12 11 10 11 14 17 20 21 23 26 28 29 32
50 59 56 55 58 52 50 54 51 53 52 49 47 38 37 35 30 30 32 32 30 29 26 23 22 17 15 14 14 14 14 13 13 13 16 18 21 24 26 28 27 29 34 36
56 57 59 60 59 52 54 55 56 55 56 52 46 41 39 35 33 34 35 33 31 29 25 23 19 17 16 16 15 16 17 19 19 18 20 21 24 27 28 31 30 34 38 43
53 58 62 62 55 53 58 60 62 59 54 49 42 45 41 37 36 37 35 33 30 27 24 21 20 18 17 19 22 21 21 22 22 24 23 24 29 30 29 31 34 38 42 45
57 63 65 59 54 56 63 64 65 57 49 48 49 47 42 39 37 37 35 33 29 25 22 21 20 20 21 22 22 24 25 24 26 29 28 26 33 35 33 34 40 43 46 50
63 66 64 57 57 61 65 68 63 56 50 50 52 45 40 36 35 38 36 32 28 25 22 22 23 23 23 23 25 28 28 29 29 31 32 30 37 36 37 41 44 49 51 54
66 67 60 56 60 64 64 67 62 53 51 50 50 46 39 36 36 38 35 33 30 27 26 25 26 26 25 26 30 31 31 32 33 36 34 31 35 41 43 44 46 53 57 60
68 62 59 58 65 64 63 68 63 54 48 48 46 41 40 39 38 38 36 34 31 29 28 30 30 30 30 30 32 33 32 35 38 39 36 35 40 44 47 48 53 57 61 65
66 60 60 60 60 63 65 69 61 51 48 47 44 41 40 40 39 38 36 34 33 32 32 33 34 34 34 35 36 37 38 37 39 41 42 41 45 48 50 55 58 63 65 69
60 61 63 62 61 61 67 63 57 53 48 47 47 44 40 39 38 37 36 36 35 34 34 35 35 37 38 39 38 41 40 42 42 45 47 47 47 51 54 60 64 66 70 74
60 64 64 64 62 63 67 61 55 49 48 50 48 41 41 39 39 39 39 37 34 34 35 36 36 37 39 40 42 43 46 48 49 49 50 52 51 55 62 65 68 72 77 80
62 67 68 62 59 61 57 55 50 48 46 46 48 44 42 41 39 39 38 37 37 37 36 34 35 34 38 41 42 45 52 54 49 45 51 57 61 65 68 70 74 77 79 80
61 67 67 62 57 59 55 52 52 48 46 46 48 49 45 45 44 43 42 41 40 41 40 38 37 38 38 36 38 46 52 51 53 57 62 64 68 72 74 76 78 80 83 86
64 62 63 60 58 58 51 51 49 47 47 47 46 46 48 49 49 48 47 46 46 45 43 43 43 47 46 45 50 61 61 61 62 63 66 69 72 74 77 80 84 86 87 86
62 65 65 63 61 58 53 51 48 46 44 42 42 46 48 51 53 54 53 52 52 50 51 52 53 54 53 52 57 65 65 67 68 69 72 75 77 80 83 87 88 89 88 90
60 61 63 66 62 58 56 53 47 45 43 41 42 45 49 52 56 56 56 58 59 58 57 58 58 58 60 61 69 69 71 72 73 75 77 81 83 87 88 89 89 89 92 94
54 62 61 64 65 60 57 59 53 50 48 47 47 51 53 52 55 57 59 59 58 59 60 63 63 61 63 67 70 71 73 75 77 81 83 84 86 87 86 87 90 94 96 98
52 57 64 62 63 63 64 62 60 58 55 52 53 55 56 59 62 62 60 59 58 58 61 64 63 63 71 75 77 79 80 81 81 82 84 85 86 87 88 93 95 98 99 99
51 52 57 65 67 65 63 61 61 60 58 57 57 59 61 62 64 66 65 63 65 64 66 70 69 71 77 80 82 83 82 81 82 84 85 86 89 92 94 97 99 100 100 103
52 50 51 58 63 63 60 58 58 57 57 57 63 67 68 70 73 72 70 72 73 74 75 77 76 76 77 78 78 79 81 83 85 88 90 92 94 96 97 99 100 103 107 112
51 49 46 43 45 53 56 60 60 63 66 69 70 71 71 70 71 72 73 74 73 73 70 69 72 76 78 80 81 82 84 87 89 90 91 93 95 97 99 103 107 111 116 120
56 54 51 50 49 48 51 55 60 63 63 65 66 67 67 69 68 66 67 67 67 67 69 72 74 75 77 78 80 81 84 86 88 90 94 97 100 103 107 111 115 120 123 127
58 58 55 51 49 49 52 56 60 62 62 64 64 65 66 67 67 67 68 68 66 67 70 74 76 77 79 81 83 86 88 91 95 98 101 105 109 113 117 120 122 126 128 127
63 61 58 58 58 57 56 57 58 60 62 64 66 67 68 69 70 71 73 75 75 77 78 80 82 84 86 89 91 94 98 101 104 108 112 116 120 122 124 126 125 121 118 120
69 68 67 65 64 64 64 64 63 64 66 68 69 71 74 75 75 78 80 83 85 86 88 90 93 95 96 98 101 104 107 110 114 117 121 123 123 121 117 115 115 116 119 115

GFSNW_250_spd_045.txt.gz
Wind_Speed
75 70 66 63 61 59 57 54 47 44 39 36 42 39 39 40 36 31 31 29 28 25 24 21 18 18 16 14 14 12 11 11 11 12 12 13 12 9 8 8 10 13 16 18
64 62 63 57 54 58 54 51 48 41 43 40 46 43 45 43 37 31 33 30 27 26 24 21 21 20 18 17 14 14 14 14 13 13 12 10 8 8 10 12 14 16 19 21
66 62 61 56 56 55 51 45 41 45 42 50 48 49 47 43 39 34 32 30 27 28 25 24 22 20 19 18 16 15 15 14 14 12 12 11 10 12 14 16 18 21 23 25
61 62 57 52 54 51 48 40 44 47 45 51 49 51 49 44 39 34 28 27 30 27 25 24 23 21 19 17 16 15 14 14 14 13 13 13 15 18 19 20 23 25 28 30
57 55 52 53 51 48 44 45 51 46 57 56 56 52 50 44 38 34 31 31 30 26 27 27 24 23 20 18 17 16 15 16 17 17 16 17 20 24 23 24 27 29 31 34
58 47 50 49 48 48 46 52 52 58 59 57 57 54 49 42 40 36 32 32 30 28 29 27 25 24 21 19 20 20 19 19 19 20 21 20 25 29 27 29 31 33 35 37
44 47 49 54 51 49 56 58 56 62 59 59 58 54 48 42 42 38 35 34 32 31 31 29 27 25 22 22 23 23 22 21 22 24 24 24 32 34 33 32 35 37 38 41
51 53 55 55 54 54 62 58 62 63 64 63 60 55 47 43 42 37 37 34 32 32 32 30 28 27 26 26 25 26 25 25 25 27 30 30 36 39 39 38 40 40 42 46
58 57 55 58 56 62 61 60 65 64 65 63 59 54 46 43 42 40 38 38 36 34 32 30 28 28 28 27 27 27 28 28 30 33 33 34 39 43 43 44 42 45 47 51
59 56 56 59 60 64 60 64 67 66 63 63 57 51 46 47 42 41 38 38 37 36 33 31 29 29 29 30 30 29 29 30 34 36 36 38 43 45 47 48 47 50 52 56
57 57 60 63 64 63 61 66 68 67 63 61 57 50 48 48 43 39 37 38 39 36 34 33 31 30 32 33 33 34 34 34 38 39 41 39 44 46 48 50 53 54 56 60
57 60 62 62 64 60 63 66 66 65 61 56 54 51 50 49 44 37 35 35 39 39 37 34 32 34 33 34 37 39 39 40 42 45 46 46 45 49 53 54 55 56 60 65
57 62 63 63 59 59 64 66 67 66 58 53 53 50 49 48 44 38 38 39 41 41 37 36 36 36 36 36 38 41 42 45 46 46 48 49 50 53 55 58 60 63 69 71
62 62 61 60 59 61 66 69 76 69 57 55 52 50 48 47 42 40 40 40 40 40 38 37 37 37 39 39 39 42 47 47 45 46 49 49 53 56 60 64 67 70 72 75
63 60 59 58 61 63 65 67 67 65 59 53 52 50 49 48 46 42 41 40 40 40 41 40 40 41 42 41 42 47 49 48 46 49 54 58 62 65 68 71 72 74 78 82
61 59 58 60 66 67 64 65 66 62 57 52 49 49 50 49 47 44 43 42 42 43 42 42 42 45 43 41 44 52 51 53 55 58 61 63 66 68 71 75 78 80 83 86
56 58 58 59 61 60 58 57 58 57 56 54 52 50 50 51 50 48 47 47 47 45 46 46 47 48 49 49 53 58 60 61 63 65 67 70 73 75 78 80 83 86 90 92
53 56 59 60 60 56 53 54 57 56 55 52 49 48 48 49 50 51 50 50 49 49 51 51 52 52 55 57 64 67 68 69 71 73 75 76 78 79 82 86 90 93 93 93
52 57 60 60 58 54 54 56 55 54 51 48 50 52 52 51 51 50 50 51 50 50 52 54 55 57 60 64 67 69 70 73 74 75 76 79 83 87 90 92 92 92 92 94
50 56 63 64 59 57 58 56 54 54 51 50 52 53 52 52 52 52 51 52 52 51 54 56 58 61 67 68 69 69 70 73 76 80 83 86 88 90 90 90 92 95 98 100
49 51 60 65 63 61 60 58 56 54 53 52 52 53 53 53 54 54 53 54 56 55 57 60 58 60 67 70 73 76 79 82 85 86 87 88 88 90 92 94 96 97 97 99
49 52 57 59 62 63 57 58 59 60 58 57 58 58 57 57 58 59 57 56 55 54 57 61 62 70 74 77 80 83 86 87 88 89 90 91 92 93 94 95 97 100 102 105
51 48 49 49 48 51 57 64 63 64 64 63 63 64 64 64 64 64 64 65 66 68 67 67 72 78 80 80 82 83 85 88 88 89 89 90 92 94 96 99 102 106 109 112
51 46 44 41 39 40 50 58 64 69 71 71 71 71 69 69 69 69 70 70 70 69 71 74 78 81 81 81 81 81 82 84 86 88 90 93 95 99 102 105 109 113 117 120
54 50 42 39 41 44 44 47 55 63 68 68 66 66 66 68 69 71 73 74 75 78 79 78 77 77 79 81 82 84 86 88 91 94 97 100 103 106 110 113 117 121 124 124
59 53 50 50 49 50 51 51 52 54 57 62 66 68 70 72 72 72 75 76 76 76 76 77 80 81 83 85 87 89 92 96 99 102 105 107 110 115 119 121 121 121 120 117
59 57 58 56 54 53 53 53 54 55 56 59 61 64 68 68 69 72 75 76 77 79 81 83 84 85 89 92 95 98 102 105 108 109 113 116 119 121 120 118 115 113 116 116

GFSNW_250_spd_048.txt.gz
Wind_Speed
101 98 92 85 78 73 68 69 64 57 55 46 37 35 31 28 34 34 33 32 29 29 30 28 24 23 23 21 19 17 16 16 16 15 17 18 18 17 16 13 12 13 14 15
100 98 96 87 79 77 75 69 65 60 54 44 41 39 32 35 38 38 35 33 33 34 29 27 25 24 23 20 18 17 15 16 16 18 18 16 15 16 16 15 15 16 19 19
98 96 94 85 80 80 73 66 62 52 46 46 46 38 36 42 43 41 38 36 34 33 30 28 27 25 22 19 18 15 16 17 17 16 16 17 18 17 17 17 17 19 23 24
91 94 87 84 80 77 69 61 59 44 47 46 45 40 44 47 46 44 39 37 34 33 31 29 27 25 23 21 19 17 17 17 16 17 18 18 18 19 20 19 19 23 26 28
87 84 79 81 75 67 57 50 50 51 51 52 49 45 50 50 51 47 41 36 36 33 31 30 27 26 24 22 21 19 20 19 21 22 22 22 20 23 24 21 24 27 28 34
85 76 79 74 62 51 50 51 50 55 55 50 48 49 52 56 54 50 43 34 36 33 32 31 29 28 25 24 23 23 23 23 24 25 23 22 25 28 25 26 30 31 33 36
79 74 67 60 52 50 51 53 58 55 51 51 51 56 58 61 56 50 44 40 36 34 34 33 31 29 28 26 26 26 26 25 25 26 25 25 32 32 30 31 34 37 39 40
70 67 59 52 48 49 56 58 56 56 55 54 59 60 63 59 57 51 44 38 35 36 35 34 32 31 29 28 28 28 29 28 28 29 30 31 35 36 35 35 40 42 44 46
65 56 52 49 48 54 56 55 56 57 55 56 62 61 63 57 55 50 42 39 38 37 36 34 33 33 31 32 33 31 31 30 30 34 34 34 37 38 39 41 42 47 50 51
58 55 49 50 53 56 57 58 59 57 59 61 64 64 62 57 55 48 46 43 38 37 37 36 35 35 34 35 34 34 33 32 33 34 35 36 39 41 43 45 48 49 52 55
56 50 52 57 59 58 60 60 60 60 58 62 63 66 62 57 53 48 47 43 39 40 40 37 36 36 36 36 36 35 34 34 36 36 38 38 41 42 45 48 51 53 54 57
53 57 60 61 60 61 63 62 59 59 62 65 66 66 62 60 54 49 47 43 38 38 40 41 37 37 37 37 37 35 37 38 41 41 42 43 44 45 48 52 54 57 57 58
59 60 62 62 62 63 63 62 61 61 66 68 68 65 62 59 51 47 44 41 42 42 43 42 40 40 40 39 40 39 40 42 42 43 46 46 48 50 52 51 52 54 59 65
62 62 58 57 60 63 61 60 59 65 68 69 68 63 63 57 50 47 45 43 42 41 41 41 42 42 41 41 41 42 43 44 44 45 47 48 49 50 52 54 58 63 67 71
56 54 54 55 60 61 60 59 61 67 67 65 65 65 59 57 52 49 47 45 42 41 40 40 42 43 44 44 43 44 46 46 47 47 49 51 53 55 58 62 65 69 72 75
53 53 54 56 60 59 57 55 61 65 69 64 58 61 61 57 52 52 51 48 46 42 41 41 42 44 45 44 46 48 50 52 52 53 55 57 58 61 65 69 72 75 79 81
50 52 55 58 57 57 54 59 68 71 72 67 60 59 59 56 53 51 52 50 47 43 42 43 45 48 48 50 52 55 57 58 59 61 61 63 66 70 73 76 77 80 84 85
53 56 60 58 58 57 56 57 62 68 66 67 59 56 52 53 52 50 51 51 50 47 44 45 47 48 50 52 57 58 60 62 64 65 69 71 72 74 77 79 83 85 88 92
55 54 55 55 51 53 54 54 60 63 60 63 56 52 53 52 53 52 52 54 52 51 49 51 50 51 53 58 60 62 65 67 70 73 73 75 77 79 82 84 88 92 95 97
52 50 53 49 50 51 55 57 56 55 56 59 57 54 51 50 51 53 53 54 56 55 56 55 54 57 61 64 65 66 69 72 74 75 76 78 80 83 86 90 94 96 94 95
50 49 51 52 51 52 55 56 53 52 52 56 59 57 55 56 57 57 55 54 54 53 54 55 56 61 66 68 70 72 73 73 74 76 79 81 84 88 91 93 94 93 93 96
51 48 52 54 52 52 54 57 57 56 57 59 61 61 59 58 58 56 55 56 57 56 59 60 59 65 70 72 72 70 70 73 77 82 85 88 91 93 95 94 95 97 99 102
50 48 49 51 52 52 56 55 55 57 60 60 60 61 62 62 62 61 61 60 60 62 61 61 66 72 71 70 72 75 78 82 84 88 91 93 95 95 94 97 100 103 106 108
50 47 45 44 49 55 60 59 58 58 59 61 61 61 62 64 65 65 66 65 66 65 65 67 70 71 74 78 81 84 85 88 91 94 96 96 96 97 100 103 105 107 111 115
51 46 44 43 44 53 60 64 61 61 61 62 63 64 64 65 65 66 69 70 69 70 72 75 77 80 82 84 84 86 90 92 94 95 97 99 100 102 105 107 110 115 119 122
50 47 47 46 46 48 52 56 60 64 64 65 66 66 67 70 71 72 75 77 77 79 80 80 81 81 83 86 89 90 92 94 96 98 100 102 103 106 110 115 118 121 122 123
51 51 51 52 50 48 50 51 53 54 56 57 58 59 61 63 65 68 72 75 76 78 79 81 81 82 83 86 89 90 92 95 97 100 103 107 110 113 117 120 121 120 118 117